Kuchera_Ratio
0.0 0.0 0.0 0.0 0.0 0.0 0.0 0.0 0.0 0.0 0.0 0.0 0.0 0.0 0.0 0.0 0.0 0.0 0.0 0.0 0.0 0.0 0.0 0.0 0.0 0.0 0.0 0.0 0.0 0.0 0.0 0.0 0.0 6.0 3.8 2.0 2.2 0.0 0.0 0.0 0.0 2.0 5.8 3.4 2.8 7.6 10.6 0.0 0.0 0.0 0.0 0.0 0.0 0.0
0.0 0.0 0.0 0.0 0.0 0.0 0.0 0.0 0.0 0.0 0.0 0.0 0.0 0.0 0.0 0.0 0.0 0.0 0.0 0.0 0.0 0.0 0.0 0.0 0.0 0.0 0.0 0.0 0.0 0.0 0.0 0.0 2.0 5.0 0.0 3.4 3.4 0.0 0.0 5.4 0.0 2.8 0.0 0.0 0.0 0.0 0.0 0.0 0.0 0.0 0.0 0.0 0.0 0.0
0.0 0.0 0.0 0.0 0.0 0.0 0.0 0.0 0.0 0.0 0.0 0.0 0.0 0.0 0.0 0.0 0.0 0.0 0.0 0.0 0.0 0.0 0.0 0.0 0.0 0.0 0.0 0.0 0.0 0.0 0.0 0.0 0.0 0.0 2.0 4.6 8.4 0.0 5.8 1.6 0.0 0.0 0.0 0.0 0.0 0.0 0.0 0.0 0.0 0.0 0.0 0.0 0.0 0.0
0.0 0.0 0.0 0.0 0.0 0.0 0.0 0.0 0.0 0.0 0.0 0.0 0.0 0.0 0.0 0.0 0.0 0.0 0.0 0.0 0.0 0.0 4.2 0.0 0.0 0.0 0.0 0.0 0.0 0.0 0.0 0.0 0.0 0.0 3.2 5.4 6.0 0.0 0.0 0.0 0.0 0.0 0.0 0.0 0.0 0.0 0.0 0.0 0.0 0.0 0.0 0.0 0.0 0.0
0.0 0.0 0.0 0.0 0.0 0.0 0.0 0.0 0.0 0.0 0.0 0.0 0.0 0.0 0.0 0.0 0.0 0.0 0.0 0.0 0.0 0.0 4.0 0.0 0.0 0.0 0.0 0.0 0.0 0.0 0.0 0.0 0.0 1.2 4.4 5.0 0.0 0.0 0.0 0.0 0.0 0.0 0.0 0.0 0.6 0.0 0.0 0.0 0.0 0.0 0.0 0.0 0.0 0.0
0.0 0.0 0.0 0.0 0.0 0.0 0.0 0.0 0.0 0.0 0.0 0.0 0.0 0.0 0.0 0.0 0.0 0.0 0.0 0.0 0.0 0.0 0.4 6.2 0.0 0.0 0.0 0.0 0.0 0.0 0.0 0.0 0.0 0.0 0.2 0.0 0.0 0.0 5.4 2.2 0.0 0.0 0.0 0.0 0.0 0.0 0.0 0.0 0.0 0.0 0.0 0.0 0.0 0.0
0.0 0.0 0.0 0.0 0.0 0.0 0.0 0.0 0.0 0.0 0.0 0.0 0.0 0.0 0.0 0.0 0.0 0.0 0.0 0.0 0.0 0.0 2.6 4.6 0.0 0.0 0.0 0.0 0.0 0.0 0.0 0.0 0.0 0.0 2.8 0.0 0.0 0.8 2.6 4.4 0.0 0.0 0.0 0.0 0.0 0.0 0.0 0.0 0.0 0.0 0.0 0.0 0.0 0.0
0.0 0.0 0.0 0.0 0.0 0.0 0.0 0.0 0.0 0.0 0.0 0.0 0.0 0.0 0.0 0.0 0.0 0.0 0.0 0.0 0.0 0.0 0.0 6.0 2.8 0.0 0.0 0.0 0.0 0.0 0.0 0.0 2.6 3.6 0.0 0.0 0.0 0.6 5.2 0.0 0.0 0.0 0.0 0.0 0.0 0.0 0.0 0.0 0.0 0.0 0.0 0.0 0.0 0.0
0.0 0.0 0.0 0.0 0.0 0.0 0.0 0.0 0.0 0.0 0.0 0.0 0.0 0.0 0.0 0.0 0.2 0.0 0.0 0.0 0.0 0.0 7.0 4.2 6.8 8.4 0.0 0.0 0.0 0.6 1.0 8.6 1.0 6.2 2.0 0.0 2.2 6.6 0.0 0.0 0.0 0.0 0.0 0.0 0.0 0.0 0.0 0.0 0.0 0.0 0.0 0.0 0.0 0.0
0.0 0.0 0.0 0.0 0.0 0.0 0.0 0.0 0.0 0.0 0.0 0.0 0.0 0.0 7.8 0.0 0.0 0.0 0.0 0.0 0.6 2.4 0.4 5.4 0.0 5.4 0.0 0.0 4.2 3.8 4.2 6.8 7.8 0.4 0.0 5.2 1.6 0.0 0.0 0.0 0.0 0.0 0.0 0.0 0.0 0.0 0.0 0.0 0.0 0.0 0.0 0.0 0.0 0.0
0.0 0.0 0.0 0.0 0.0 0.0 0.0 0.0 0.0 0.0 0.0 0.0 2.8 3.8 0.0 0.0 0.0 0.0 8.4 10.2 5.0 9.2 0.0 0.0 0.0 1.8 0.0 4.6 5.2 0.8 6.4 2.6 10.4 2.0 3.8 2.4 1.8 0.0 0.0 0.0 0.0 0.0 0.0 0.0 0.0 0.0 0.0 0.0 0.0 0.0 0.0 0.0 0.0 0.0
0.0 0.0 0.0 0.0 0.0 0.0 0.0 0.0 0.0 0.0 0.0 0.0 0.0 0.0 0.0 1.4 6.6 11.0 10.2 4.0 7.0 7.2 0.0 0.0 0.0 0.0 0.0 0.0 3.8 6.4 9.0 4.4 11.0 0.0 5.2 7.2 0.0 0.0 0.0 0.0 0.0 0.0 0.0 0.0 0.0 0.0 0.0 0.0 0.0 0.0 0.0 0.0 0.0 0.0
0.0 0.0 0.0 0.0 0.0 0.0 0.0 0.0 0.0 0.0 0.0 0.0 0.0 6.6 8.6 6.0 14.0 14.2 14.1 9.6 8.0 0.2 0.0 0.0 3.2 0.0 0.0 0.0 3.8 4.4 11.0 9.2 0.0 8.4 7.8 0.0 0.0 0.0 0.0 0.0 0.0 0.6 2.7 4.2 5.0 4.2 3.8 4.8 4.8 4.6 6.2 6.4 6.4 6.0
0.0 0.0 0.0 0.0 0.0 0.0 0.0 0.0 0.0 0.0 0.0 4.0 9.6 13.5 12.0 13.1 9.6 5.6 5.2 2.8 0.0 1.4 2.0 2.2 4.2 2.4 0.0 3.6 2.4 11.8 3.2 1.4 12.0 12.8 7.8 0.0 0.0 1.0 3.6 1.4 0.8 4.4 6.6 7.0 7.8 8.0 8.6 8.6 9.4 8.6 8.0 7.6 7.4 8.0
0.0 0.0 0.0 0.0 0.0 0.0 0.0 0.0 0.0 0.0 0.0 6.8 6.6 13.4 9.6 2.8 4.2 6.0 5.6 2.6 0.0 0.0 2.8 6.2 5.2 4.0 6.2 8.8 5.2 6.4 12.2 12.9 8.4 7.0 0.0 0.0 0.0 1.6 2.0 1.2 2.4 5.8 8.2 8.0 7.2 8.8 9.2 8.2 8.4 9.4 8.2 7.2 6.8 7.8
0.0 0.0 0.0 0.0 0.0 0.0 0.0 0.0 0.0 0.0 0.0 3.6 4.4 10.6 5.2 9.0 7.8 7.0 6.6 5.8 0.0 0.0 0.4 1.6 6.8 9.2 9.8 6.4 10.8 11.4 9.6 10.2 3.0 0.0 0.0 0.0 0.0 0.6 1.8 2.0 4.0 5.8 6.4 6.6 7.2 7.6 8.6 8.6 8.2 8.4 7.6 7.8 8.6 8.6
0.0 0.0 0.0 0.0 0.0 0.0 0.0 0.0 0.8 3.6 3.6 5.4 6.8 1.8 6.0 7.4 9.2 6.6 3.6 1.6 0.0 2.2 7.6 3.4 11.6 8.6 0.0 7.4 8.6 1.4 6.4 0.4 0.0 0.0 0.0 0.0 1.0 3.0 4.0 6.2 7.4 7.8 7.0 6.6 7.8 7.6 8.0 6.8 5.2 5.2 9.4 8.4 7.0 7.0
0.0 0.0 0.0 0.0 0.0 0.0 0.0 0.0 4.4 6.2 9.0 2.6 5.6 4.8 5.0 5.0 6.6 4.6 1.4 0.0 1.4 3.6 3.0 6.8 0.0 6.4 9.6 9.8 5.8 0.4 1.2 2.8 1.2 1.6 1.0 2.2 1.6 3.6 4.0 5.6 7.0 6.6 6.8 7.8 8.2 8.4 7.6 7.2 6.8 7.2 6.8 5.8 6.2 6.6
0.0 0.0 0.0 0.0 0.0 0.0 5.0 5.2 1.2 8.2 4.4 3.2 3.0 3.8 4.2 4.6 1.6 0.4 0.8 0.0 0.0 2.4 4.2 6.0 8.0 7.2 5.2 3.2 8.0 7.2 5.6 5.4 6.0 3.6 3.0 5.8 5.0 6.2 6.6 6.8 7.2 7.4 8.2 8.2 7.6 7.8 7.6 7.0 6.8 5.6 5.6 5.2 7.8 7.4
0.0 0.0 0.0 0.0 0.0 3.6 7.2 5.0 2.8 4.6 4.6 2.0 0.4 3.6 3.8 4.8 2.4 3.6 4.2 3.0 4.2 6.4 8.8 9.2 6.2 9.0 9.8 7.8 6.8 7.4 7.0 5.0 5.6 6.0 6.2 5.4 5.2 6.6 7.2 6.6 6.2 7.4 8.2 8.8 8.8 8.0 7.0 7.4 6.2 6.6 6.8 7.2 8.8 10.2
0.0 0.0 0.0 0.0 1.0 0.4 0.6 0.8 1.8 0.2 0.4 3.6 0.0 3.6 4.0 3.2 6.2 7.0 5.4 1.4 7.8 7.8 8.0 8.4 9.0 7.2 6.6 6.0 5.2 5.6 5.2 4.0 6.4 5.4 4.8 6.8 6.2 5.2 6.4 7.0 6.6 6.8 7.6 8.8 10.2 10.8 9.8 10.0 8.0 7.8 9.6 11.2 10.8 9.8
0.0 0.0 0.0 0.0 0.0 0.0 0.0 0.0 0.0 0.0 0.0 0.0 1.0 0.0 4.2 8.4 7.8 6.6 2.8 8.2 9.0 9.8 9.0 9.4 8.8 8.2 7.4 8.4 8.6 7.2 7.4 5.4 5.6 5.6 7.2 7.2 8.2 8.2 8.2 7.4 7.2 8.6 8.6 9.2 9.4 11.0 11.6 9.2 8.4 9.0 11.0 11.8 11.2 12.7
0.0 0.0 0.0 0.0 4.0 4.2 5.4 0.0 1.6 0.0 7.0 4.2 0.0 4.8 5.0 6.4 4.2 1.6 10.6 9.2 11.0 9.0 8.6 8.6 8.6 6.8 8.0 7.6 7.4 8.4 8.2 7.0 6.2 7.0 8.0 8.4 8.4 8.2 8.2 8.4 8.0 10.0 11.8 11.4 9.8 11.0 12.1 12.1 12.1 11.4 11.4 11.2 11.8 12.7
0.0 1.4 9.4 7.8 6.2 11.4 4.2 8.0 0.0 2.2 3.4 5.4 6.4 10.8 7.8 8.6 3.2 7.2 12.2 12.0 11.4 7.4 9.0 10.6 7.8 7.6 5.6 7.8 10.0 11.0 10.4 7.6 8.8 9.2 8.6 9.6 11.6 12.0 10.8 11.4 10.8 10.4 10.2 9.6 10.2 11.4 11.6 12.9 12.6 12.1 12.6 13.2 13.8 14.1
6.8 13.1 11.4 13.8 8.0 12.1 13.4 12.8 12.3 8.6 12.9 10.0 12.0 11.2 9.6 4.0 11.2 12.2 13.8 13.8 12.5 12.8 12.6 11.0 9.4 9.4 11.4 10.4 9.4 10.8 11.8 11.0 11.0 12.5 12.1 11.4 12.5 13.0 13.3 13.2 13.0 12.6 11.0 12.4 12.9 12.9 13.6 13.6 13.7 14.2 14.4 14.9 15.7 16.4
14.8 13.8 13.5 13.3 13.0 13.4 12.5 15.1 14.4 14.0 12.9 13.9 13.0 10.4 8.6 11.8 13.7 15.7 14.8 14.5 14.0 13.7 14.3 14.2 14.0 12.7 11.6 11.4 12.8 13.0 13.4 12.6 11.2 12.7 13.6 12.1 11.6 11.8 13.3 14.3 15.0 15.4 13.1 12.7 12.7 13.7 14.6 14.9 15.5 16.2 17.0 17.9 18.8 16.7
15.8 15.4 9.4 4.0 8.4 9.2 12.6 10.8 8.8 12.5 15.2 15.5 13.5 13.8 13.6 15.8 16.1 15.4 13.0 13.4 13.9 13.8 13.0 12.8 13.2 13.3 13.5 13.1 12.6 12.6 12.6 13.4 14.6 15.0 14.4 14.2 14.1 14.2 13.4 13.4 15.6 15.8 14.7 14.6 14.4 14.3 15.5 16.0 16.8 17.5 18.5 18.6 18.8 18.6
12.6 12.8 17.1 14.1 13.8 10.8 15.7 14.6 15.1 15.6 14.2 11.8 12.5 15.6 16.1 16.3 16.6 14.9 14.1 13.3 13.5 13.0 12.7 11.6 12.1 12.6 13.4 13.9 13.6 13.4 13.0 13.3 13.9 14.2 14.3 14.9 15.3 15.6 16.0 16.3 16.9 17.2 16.9 15.9 15.5 15.2 15.5 16.2 17.0 17.9 19.1 20.2 20.6 19.7
13.9 12.0 12.7 18.0 16.9 14.4 14.1 14.4 13.9 12.4 12.0 12.5 15.0 15.1 14.5 13.9 14.2 14.5 13.9 14.2 13.5 14.0 14.4 14.2 13.1 12.8 12.6 12.9 13.8 14.2 14.3 14.6 15.6 16.0 16.7 16.1 16.3 17.2 15.9 16.0 16.0 16.2 16.8 17.8 18.1 17.5 17.5 17.9 18.5 19.0 19.4 19.8 19.7 19.6
15.2 12.4 14.8 16.9 18.5 16.1 13.8 13.3 13.8 13.4 11.8 12.4 12.4 12.7 12.7 13.6 13.9 13.6 14.2 14.6 15.4 16.0 15.6 15.1 14.9 14.9 15.6 15.4 15.4 16.0 15.8 15.9 16.4 16.9 17.1 16.1 16.7 16.1 16.1 16.4 16.4 16.1 16.4 17.7 19.3 20.1 20.0 20.1 20.0 20.0 20.0 20.2 20.5 21.4
13.6 13.7 15.3 14.8 15.6 13.5 14.0 14.1 14.1 14.6 14.2 14.0 14.2 15.7 15.0 14.9 13.9 14.0 14.4 15.0 15.4 15.3 15.6 15.8 16.1 16.5 16.9 17.3 17.6 17.5 17.4 17.2 17.5 16.9 16.2 16.0 16.2 16.6 17.0 17.2 16.6 16.5 17.1 18.0 18.8 19.3 19.7 19.6 20.0 20.6 21.5 22.6 23.1 22.9
14.7 16.5 16.7 18.2 15.3 14.4 14.4 14.8 14.8 15.0 14.8 15.7 15.5 15.2 15.1 16.0 16.9 15.8 15.4 15.7 15.1 16.1 18.1 17.0 17.5 18.3 18.0 17.5 17.7 17.9 19.5 18.0 17.7 17.6 17.3 17.1 17.4 17.6 17.6 17.8 17.9 17.7 18.4 18.9 19.4 19.7 19.6 20.1 20.7 21.6 22.7 23.7 24.6 25.3
16.2 16.3 16.5 16.6 16.3 16.7 15.3 17.0 16.5 17.2 16.4 16.4 16.2 17.1 16.6 17.4 18.7 16.2 15.6 15.5 16.7 17.1 17.3 17.4 17.5 17.9 19.1 19.2 18.9 18.2 18.5 19.2 20.4 20.4 20.6 20.9 20.7 19.2 18.1 18.3 18.7 19.1 19.4 19.5 19.9 20.3 20.9 21.5 22.3 23.5 24.8 25.7 25.8 25.9